Date String (YYYY-MM-DD hh:mm:ss) UTC,Instrument flags,Ambient pressure (hPa),Sample flow (lpm),Bypass flow (lpm),Sample temperature (°C),Ambient temperature (°C),ASC tube jacket temperature (°C),LED temperature (°C),Box temperature (°C),Sample RH (%),Span deviation,Mass concentration (μg/m³),Mass concentration (μg/m³),Mass concentration (μg/m³)
DateTimeUTC,F1_M11,P_M11,Q1_M11,Q2_M11,T1_M11,T2_M11,T3_M11,T4_M11,T5_M11,U1_M11,ZSPAN_M11,X0_M11,X2_M11,X1_M11
2021-09-23 02:00:00,,0830.4,4.99,0.00,29.6,28.3,00.0,38.6,31.4,11.0,0000.0,0012.19,0003.27,0001.51
2021-09-23 02:01:00,,0830.4,5.02,0.00,29.6,28.5,00.0,38.6,31.4,11.0,0000.0,0012.31,0003.27,0001.51
2021-09-23 02:02:00,,0830.4,5.00,0.00,29.7,28.6,00.0,38.7,31.5,11.0,0000.0,0012.61,0003.25,0001.51
2021-09-23 02:03:00,,0830.4,4.99,0.00,29.7,28.7,00.0,38.7,31.6,10.9,0000.0,0012.96,0003.23,0001.51
2021-09-23 02:04:00,,0830.4,5.01,0.00,29.7,28.8,00.0,38.7,31.6,10.9,0000.0,0013.21,0003.22,0001.51
2021-09-23 02:05:00,,0830.4,5.00,0.00,29.8,28.9,00.0,38.7,31.6,10.9,0000.0,0013.38,0003.22,0001.51
2021-09-23 02:06:00,,0830.4,4.99,0.00,29.8,28.9,00.0,38.8,31.7,10.8,0000.0,0013.73,0003.23,0001.51
2021-09-23 02:07:00,,0830.4,4.99,0.00,29.9,29.0,00.0,38.8,31.7,10.8,0000.0,0013.65,0003.23,0001.51
2021-09-23 02:08:00,,0830.4,5.01,0.00,29.9,29.0,00.0,38.8,31.7,10.8,0000.0,0012.49,0003.20,0001.51
2021-09-23 02:09:00,,0830.4,5.00,0.00,29.8,27.1,00.0,38.8,31.2,10.8,0000.0,0012.56,0003.13,0001.49
2021-09-23 02:10:00,,0830.4,5.00,0.00,29.6,26.1,00.0,38.8,30.9,10.9,0000.0,0013.36,0003.11,0001.48
2021-09-23 02:11:00,,0830.4,4.99,0.00,29.6,26.3,00.0,38.7,30.9,10.9,0000.0,0013.72,0003.06,0001.47
2021-09-23 02:12:00,,0830.4,5.00,0.00,29.5,26.7,00.0,38.7,31.0,10.9,0000.0,0014.31,0003.08,0001.48
2021-09-23 02:13:00,,0830.4,4.99,0.00,29.5,27.1,00.0,38.7,31.1,11.0,0000.0,0013.64,0003.08,0001.50
2021-09-23 02:14:00,,0830.4,5.00,0.00,29.5,27.5,00.0,38.6,31.2,10.9,0000.0,0014.17,0003.12,0001.51
2021-09-23 02:15:00,,0830.4,5.01,0.00,29.5,27.8,00.0,38.6,31.2,10.9,0000.0,0014.36,0003.12,0001.49
2021-09-23 02:16:00,,0830.5,4.99,0.00,29.5,28.0,00.0,38.6,31.3,10.9,0000.0,0014.65,0003.15,0001.50
2021-09-23 02:17:00,,0830.5,5.00,0.00,29.5,28.2,00.0,38.6,31.3,10.8,0000.0,0015.20,0003.18,0001.50
2021-09-23 02:18:00,,0830.5,5.00,0.00,29.6,28.4,00.0,38.6,31.4,10.8,0000.0,0014.83,0003.19,0001.50
2021-09-23 02:19:00,,0830.5,5.01,0.00,29.6,28.5,00.0,38.7,31.4,10.8,0000.0,0014.38,0003.17,0001.50
2021-09-23 02:20:00,,0830.5,5.00,0.00,29.7,28.6,00.0,38.7,31.5,10.7,0000.0,0014.89,0003.21,0001.51
2021-09-23 02:21:00,,0830.5,5.00,0.00,29.7,28.7,00.0,38.7,31.5,10.7,0000.0,0014.20,0003.21,0001.51
2021-09-23 02:22:00,,0830.6,5.00,0.00,29.7,28.8,00.0,38.7,31.6,10.8,0000.0,0013.52,0003.26,0001.52
2021-09-23 02:23:00,,0830.5,5.01,0.00,29.8,28.9,00.0,38.7,31.6,10.8,0000.0,0012.69,0003.24,0001.51
2021-09-23 02:24:00,,0830.5,4.99,0.00,29.8,28.9,00.0,38.7,31.7,10.7,0000.0,0013.01,0003.24,0001.51
2021-09-23 02:25:00,,0830.5,5.01,0.00,29.8,29.0,00.0,38.8,31.7,10.6,0000.0,0012.40,0003.23,0001.50
2021-09-23 02:26:00,,0830.6,4.99,0.00,29.9,29.1,00.0,38.8,31.7,10.6,0000.0,0011.17,0003.17,0001.52
2021-09-23 02:27:00,,0830.5,4.99,0.00,29.9,29.1,00.0,38.8,31.7,10.5,0000.0,0011.00,0003.12,0001.52
2021-09-23 02:28:00,,0830.5,5.00,0.00,29.9,27.7,00.0,38.8,31.4,10.5,0000.0,0010.45,0003.14,0001.52
2021-09-23 02:29:00,,0830.5,5.00,0.00,29.7,26.2,00.0,38.8,31.0,10.6,0000.0,0010.82,0003.16,0001.51
2021-09-23 02:30:00,,0830.5,5.01,0.00,29.6,26.2,00.0,38.8,31.0,10.6,0000.0,0011.44,0003.17,0001.50
2021-09-23 02:31:00,,0830.5,4.99,0.00,29.5,26.6,00.0,38.7,31.0,10.7,0000.0,0011.78,0003.16,0001.49
2021-09-23 02:32:00,,0830.5,5.00,0.00,29.5,27.0,00.0,38.7,31.1,10.7,0000.0,0012.78,0003.17,0001.48
2021-09-23 02:33:00,,0830.5,5.00,0.00,29.5,27.4,00.0,38.7,31.1,10.7,0000.0,0013.26,0003.16,0001.47
2021-09-23 02:34:00,,0830.5,5.00,0.00,29.5,27.7,00.0,38.7,31.2,10.7,0000.0,0013.84,0003.19,0001.46
2021-09-23 02:35:00,,0830.5,4.99,0.00,29.5,28.0,00.0,38.7,31.3,10.6,0000.0,0013.81,0003.24,0001.45
2021-09-23 02:36:00,,0830.5,5.02,0.00,29.6,28.2,00.0,38.7,31.3,10.6,0000.0,0013.99,0003.22,0001.43
2021-09-23 02:37:00,,0830.5,4.99,0.00,29.6,28.3,00.0,38.7,31.4,10.6,0000.0,0014.94,0003.28,0001.42
2021-09-23 02:38:00,,0830.5,5.00,0.00,29.6,28.5,00.0,38.7,31.4,10.7,0000.0,0014.76,0003.30,0001.39
2021-09-23 02:39:00,,0830.5,4.99,0.00,29.6,28.6,00.0,38.7,31.5,10.6,0000.0,0014.91,0003.26,0001.39
2021-09-23 02:40:00,,0830.5,4.99,0.00,29.7,28.7,00.0,38.7,31.5,10.5,0000.0,0014.51,0003.21,0001.39
2021-09-23 02:41:00,,0830.5,5.00,0.00,29.7,28.8,00.0,38.7,31.5,10.6,0000.0,0014.03,0003.17,0001.40
2021-09-23 02:42:00,,0830.5,5.02,0.00,29.7,28.8,00.0,38.7,31.6,10.5,0000.0,0014.18,0003.17,0001.41
2021-09-23 02:43:00,,0830.5,4.99,0.00,29.8,28.8,00.0,38.7,31.6,10.5,0000.0,0013.27,0003.18,0001.41
2021-09-23 02:44:00,,0830.5,5.02,0.00,29.8,28.9,00.0,38.8,31.7,10.5,0000.0,0012.29,0003.14,0001.41
2021-09-23 02:45:00,,0830.5,5.01,0.00,29.8,28.9,00.0,38.8,31.7,10.6,0000.0,0011.68,0003.14,0001.41
2021-09-23 02:46:00,,0830.5,4.99,0.00,29.9,29.0,00.0,38.8,31.7,10.5,0000.0,0012.78,0003.13,0001.42
2021-09-23 02:47:00,,0830.5,5.02,0.00,29.9,29.0,00.0,38.8,31.7,10.5,0000.0,0012.75,0003.12,0001.44
2021-09-23 02:48:00,,0830.5,5.00,0.00,29.9,29.1,00.0,38.9,31.8,10.4,0000.0,0011.92,0003.04,0001.45
2021-09-23 02:49:00,,0830.5,4.99,0.00,29.9,29.1,00.0,38.9,31.8,10.4,0000.0,0012.09,0003.03,0001.46
2021-09-23 02:50:00,,0830.6,5.01,0.00,30.0,28.5,00.0,38.9,31.7,10.4,0000.0,0012.27,0003.01,0001.47
2021-09-23 02:51:00,,0830.5,5.00,0.00,29.8,26.4,00.0,38.9,31.1,10.5,0000.0,0012.60,0003.01,0001.46
2021-09-23 02:52:00,,0830.5,5.00,0.00,29.7,26.1,00.0,38.8,31.0,10.6,0000.0,0013.03,0002.99,0001.47
2021-09-23 02:53:00,,0830.5,5.00,0.00,29.6,26.4,00.0,38.8,31.0,10.6,0000.0,0012.25,0002.95,0001.46
2021-09-23 02:54:00,,0830.5,5.01,0.00,29.5,26.8,00.0,38.8,31.1,10.6,0000.0,0012.06,0002.92,0001.48
2021-09-23 02:55:00,,0830.5,4.99,0.00,29.5,27.2,00.0,38.7,31.1,10.5,0000.0,0012.30,0002.92,0001.49
2021-09-23 02:56:00,,0830.5,4.99,0.00,29.5,27.6,00.0,38.7,31.2,10.4,0000.0,0012.88,0002.83,0001.48
2021-09-23 02:57:00,,0830.5,5.01,0.00,29.5,27.8,00.0,38.7,31.2,10.5,0000.0,0011.71,0002.76,0001.48
2021-09-23 02:58:00,,0830.4,5.00,0.00,29.6,28.0,00.0,38.7,31.3,10.4,0000.0,0011.43,0002.72,0001.48
2021-09-23 02:59:00,,0830.4,4.99,0.00,29.6,28.2,00.0,38.7,31.4,10.4,0000.0,0011.34,0002.78,0001.49
